EW8130 Weather Reports


Display with metric or nautical units.
time (UTC)temp
F
wind
direction
speed
MPH
gust
MPH
rain 1hr
in
rain 24hr
in
rain mn
in
humidity
%
barometer
mb
20260503211544 82 100 0.0 4.0 0.00 0.00 0.00 34 995.9
20260503210041 81 125 0.0 6.0 0.00 0.00 0.00 34 996.3
20260503204539 82 359 0.0 8.0 0.00 0.00 0.00 34 996.5
20260503203037 81 126 0.0 5.0 0.00 0.00 0.00 35 996.8
20260503201536 81 129 0.0 10.0 0.00 0.00 0.00 34 997.2
20260503200036 82 133 0.0 8.0 0.00 0.00 0.00 34 997.3
20260503194530 82 143 1.0 8.0 0.00 0.00 0.00 33 997.5
20260503193033 82 162 1.0 8.0 0.00 0.00 0.00 34 997.7
20260503191525 82 106 0.0 9.0 0.00 0.00 0.00 36 997.9
20260503190029 82 156 0.0 8.0 0.00 0.00 0.00 36 998.0
20260503184521 81 124 3.0 10.0 0.00 0.00 0.00 37 998.2
20260503183026 81 168 3.0 10.0 0.00 0.00 0.00 37 998.4
20260503181515 80 137 1.0 11.0 0.00 0.00 0.00 39 998.7
20260503180018 79 79 0.0 9.0 0.00 0.00 0.00 41 999.2
20260503174511 79 141 2.0 11.0 0.00 0.00 0.00 41 999.3
20260503173010 79 212 0.0 4.0 0.00 0.00 0.00 44 999.6
20260503171509 78 206 0.0 10.0 0.00 0.00 0.00 44 999.9
20260503081510 58 210 0.0 0.0 0.00 0.00 0.00 68 998.7
20260503071556 60 135 0.0 0.0 0.00 0.00 0.00 67 999.0
20260503054553 62 126 0.0 0.0 0.00 0.00 0.00 62 998.9
20260503053044 63 123 0.0 0.0 0.00 0.00 0.00 60 999.0
20260503051541 63 119 0.0 0.0 0.00 0.00 0.00 59 998.8
20260503050140 64 94 0.0 1.0 0.00 0.00 0.00 57 998.7
20260503044536 64 97 0.0 0.0 0.00 0.00 0.00 57 998.9
20260503043036 64 97 0.0 1.0 0.00 0.00 0.00 57 998.8
20260503041535 65 118 0.0 1.0 0.00 0.00 0.00 57 998.8
20260503040038 65 359 0.0 1.0 0.00 0.00 0.00 56 998.8
20260503034536 66 359 0.0 1.0 0.00 0.00 0.00 54 998.8
20260503033031 67 359 0.0 0.0 0.00 0.00 0.00 52 998.8
20260503031529 67 359 0.0 0.0 0.00 0.00 0.00 50 998.6
20260503030029 68 359 0.0 1.0 0.00 0.00 0.00 49 998.5
20260503024529 69 359 0.0 1.0 0.00 0.00 0.00 47 998.4
20260503023028 70 131 0.0 1.0 0.00 0.00 0.00 46 998.3
20260503021530 70 85 0.0 1.0 0.00 0.00 0.00 46 998.1
20260503020028 70 102 0.0 1.0 0.00 0.00 0.00 46 998.0
20260503014538 71 114 0.0 1.0 0.00 0.00 0.00 45 998.0
20260503013027 71 63 0.0 1.0 0.00 0.00 0.00 44 997.9
20260503011526 72 62 0.0 1.0 0.00 0.00 0.00 43 997.8
20260503010025 73 95 0.0 1.0 0.00 0.00 0.00 42 997.7
20260503004525 73 69 0.0 2.0 0.00 0.00 0.00 40 997.6
20260503003024 74 42 0.0 2.0 0.00 0.00 0.00 39 997.5
20260503001524 75 266 0.0 1.0 0.00 0.00 0.00 37 997.4
20260503000026 76 4 0.0 1.0 0.00 0.00 0.00 35 997.4
20260502234521 77 30 0.0 1.0 0.00 0.00 0.00 34 997.5
20260502233021 77 250 0.0 1.0 0.00 0.00 0.00 34 997.6
20260502231521 78 359 0.0 1.0 0.00 0.00 0.00 33 997.6
20260502230021 78 77 0.0 1.0 0.00 0.00 0.00 33 997.6
20260502224519 79 335 0.0 0.0 0.00 0.00 0.00 33 997.6
20260502223019 79 314 0.0 1.0 0.00 0.00 0.00 33 997.7
20260502221518 79 299 0.0 1.0 0.00 0.00 0.00 33 997.8
20260502220024 78 102 0.0 1.0 0.00 0.00 0.00 33 997.8
20260502214516 79 323 0.0 1.0 0.00 0.00 0.00 33 998.0
20260502213015 78 97 0.0 0.0 0.00 0.00 0.00 33 998.1